sat.trackr.live / text

‹ back to catalog

STARLINK-5929

NORAD 55959 · 2023-037AX

PAYLOAD ACTIVE UNKNOWN

§ Identity

Operator
Country
US
Launch date
2023-03-17
Launch site
AFWTR
Launch vehicle
Mass (kg)
RCS (m²)

Purposes: comms

External: N2YO · Heavens-Above · Gunter

§ Orbital elements

Epoch: 2026-09-20T07:06:12.203712Z

Period
96.11 min
Inclination
69.9980°
Eccentricity
0.0002821
Mean motion
14.98330243 rev/d
Perigee alt
570.1 km
Apogee alt
574.0 km
Semi-major
6,950.2 km
B*
1.3471e-5
RAAN
133.7694°
Arg perigee
264.9392°
Mean anomaly
95.1445°
Rev number
19,362

§ Raw data

STARLINK-59291 55959U 23037AX  26263.29597458  .00000068  00000+0  13471-4 0  99992 55959  69.9980 133.7694 0002821 264.9392  95.1445 14.98330243193623

JSON: /api/v1/satellites/55959 · /tle

For live sub-satellite position, see the globe view (requires WebGL).

§ Visibility from observer

Set your observer location to see the next 7 days of passes ≥ 10°. The values pass through the URL so the page stays shareable.

No JS? Fill the form by hand. The geolocation button needs JavaScript.